Flag for China Weather past 2 weeks in Guangzhou, Guangdong, China

Now
93 °F

Partly sunny.


Feels Like: 105 °F
Forecast: 75 / 95 °F
Wind: 3 mph from Southwest

Location: Canton Airport

Current Time: Sep 2, 2014 at 3:52:43 PM

Latest Report: Sep 2, 2014 at 3:30 PM


Visibility: 4 mi

Pressure: 29.80 "Hg

Humidity: 56%

Dew point: 75 °F

Location of GuangzhouLocation

Historic Weather in Guangzhou — Graph

°F

Guangzhou temperature yesterday

Maximum temperature yesterday: 97 °F (at 3:00 PM)
Minimum temperature yesterday: 77 °F (at 1:30 AM)
Average temperature yesterday: 85 °F

Past Weeks' High & Low Weather Summary

 TemperatureHumidityPressure
High97 °F (Aug 30, 2:30 PM)100% (Aug 19, 3:00 PM)29.95 "Hg (Aug 19, 3:00 PM)
Low75 °F (Aug 19, 3:00 PM)44% (Aug 25, 1:00 PM)29.68 "Hg (Aug 18, 3:30 PM)
Average85 °F76%29.82 "Hg
* Reported Aug 18 2:00 PM — Sep 2 2:30 PM, Guangzhou, Weather by CustomWeather, © 2014

Note: Actual official high and low records may vary slightly from our data, if they occured in-between our weather recording intervals... More about our weather records

Advertising

Guangzhou weather history for previous 24 hours

 ConditionsComfort  
Time TempWeatherWind HumidityBarometerVisibility
2:30 PM
Sep 2
93 °FPartly sunny.1 mph53%29.83 "Hg4 mi
2:00 PM93 °FPartly sunny.1 mph56%29.83 "Hg4 mi
1:30 PM91 °FPartly sunny.3 mph59%29.86 "Hg4 mi
1:00 PM91 °FPartly sunny.6 mph59%29.86 "Hg4 mi
12:30 PM90 °FPartly sunny.6 mph67%29.86 "Hg4 mi
12:00 PM91 °FPartly sunny.3 mph63%29.89 "Hg4 mi
11:30 AM90 °FPartly sunny.3 mph71%29.89 "Hg4 mi
10:30 AM88 °FPartly sunny.6 mph66%29.89 "Hg5 mi
10:00 AM90 °FPartly sunny.1 mph63%29.89 "Hg6 mi
9:30 AM90 °FPartly sunny.1 mph67%29.89 "Hg6 mi
9:00 AM86 °FScattered clouds.No wind75%29.89 "Hg6 mi
8:30 AM86 °FPassing clouds.1 mph79%29.89 "Hg5 mi
8:00 AM84 °FClear.No wind79%29.86 "Hg5 mi
7:30 AM82 °FClear.1 mph84%29.86 "Hg5 mi
7:00 AM81 °FClear.No wind89%29.86 "Hg5 mi
6:30 AM81 °FClear.3 mph89%29.86 "Hg4 mi
6:00 AM79 °FClear.1 mph94%29.83 "Hg4 mi
5:30 AM79 °FClear.3 mph94%29.83 "Hg5 mi
5:00 AM79 °FClear.No wind94%29.83 "Hg5 mi
4:30 AM81 °FClear.No wind89%29.83 "Hg5 mi
4:00 AM81 °FClear.No wind89%29.83 "Hg5 mi
3:30 AM81 °FClear.No wind89%29.83 "Hg4 mi
3:00 AM81 °FClear.No wind89%29.83 "Hg4 mi
2:30 AM81 °FClear.No wind89%29.83 "Hg4 mi
2:00 AM81 °FClear.No wind89%29.86 "Hg4 mi
1:30 AM82 °FClear.No wind84%29.86 "Hg4 mi
1:00 AM82 °FClear.No wind84%29.86 "Hg4 mi
12:30 AM82 °FClear.1 mph84%29.86 "Hg4 mi
12:00 AM82 °FPassing clouds.3 mph84%29.89 "Hg4 mi
11:30 PM
Sep 1
82 °FClear.3 mph84%29.89 "Hg5 mi
11:00 PM82 °FClear.3 mph84%29.89 "Hg5 mi
10:30 PM84 °FClear.3 mph79%29.89 "Hg10 mi
10:00 PM84 °FClear.No wind79%29.86 "Hg10 mi
9:30 PM84 °FClear.1 mph74%29.86 "Hg10 mi
9:00 PM84 °FClear.1 mph79%29.86 "Hg10 mi
8:30 PM84 °FClear.1 mph74%29.86 "Hg10 mi
8:00 PM84 °FClear.3 mph74%29.83 "Hg10 mi
7:30 PM84 °FPassing clouds.3 mph74%29.83 "HgN/A
7:00 PM86 °FClear.1 mph70%29.80 "Hg10 mi
6:30 PM86 °FPartly sunny.3 mph70%29.80 "HgN/A
6:00 PM88 °FScattered clouds.8 mph66%29.80 "HgN/A
5:30 PM88 °FThunderstorms. Scattered clouds.8 mph62%29.77 "HgN/A
5:00 PM90 °FThunderstorms. Scattered clouds.13 mph59%29.77 "HgN/A
4:30 PM90 °FScattered clouds.15 mph63%29.77 "HgN/A
4:00 PM95 °FScattered clouds.3 mph50%29.77 "HgN/A
3:30 PM93 °FScattered clouds.3 mph53%29.77 "HgN/A
3:00 PM97 °FScattered clouds.1 mph47%29.77 "HgN/A
Weather by CustomWeather, © 2014

See weather overviewHow to use our weather pages